Weather History for KMFI - November, 2013

Change the Weather History Date:

Saturday, November 9, 2013

  Actual Average Record
Temperature  
Mean Temperature 40 °F -  
Max Temperature 44 °F 43 °F 71 °F (1999)
Min Temperature 37 °F 27 °F 7 °F (1959)
Degree Days  
Heating Degree Days 24    
Moisture  
Dew Point 33 °F    
Average Humidity 74    
Maximum Humidity 89    
Minimum Humidity 57    
Precipitation  
Precipitation 0.00 in - - ()
Sea Level Pressure  
Sea Level Pressure 29.82 in    
Wind  
Wind Speed 13 mph (West)    
Max Wind Speed 22 mph    
Max Gust Speed 33 mph    
Visibility 10 miles    
Events      
Averages and records for this station are not official NWS values.
T = Trace of Precipitation, MM = Missing Value Source: NWS Daily Summary

Daily Weather History Graph

Daily Weather History Graph

Search for Another Location

Airport or City:

Trip Planner

Search our weather history database for the weather conditions in past years. The results will help you decide how hot, cold, wet, or windy it might be!

Date:

Astronomy

Nov. 09, 2013 Rise Set
Actual Time 6:49 AM CST 4:38 PM CST
Civil Twilight 6:18 AM CST 5:10 PM CST
Nautical Twilight 5:43 AM CST 5:44 PM CST
Astronomical Twilight 5:09 AM CST 6:19 PM CST
Moon 12:24 PM CST (11/9) 11:12 PM CST (11/9)
Length of Visible Light 10h 51m
Length of Day
9h 49m
Waxing Crescent, 44% of the Moon is Illuminated
Nov 9
Waxing Crescent
Nov 9
First Quarter
Nov 17
Full
Nov 25
Last Quarter
Dec 2
New

Hourly Weather History & Observations

Time (CST) Temp. Windchill Dew Point Humidity Pressure Visibility Wind Dir Wind Speed Gust Speed Precip Events Conditions
12:54 AM 39.0 °F 32.8 °F 36.0 °F 89% 29.70 in 10.0 mi South 9.2 mph - 0.00 in   Overcast
1:16 AM 39.2 °F 33.0 °F 35.6 °F 87% 29.65 in 10.0 mi South 9.2 mph - N/A   Overcast
1:54 AM 41.0 °F 33.9 °F 37.0 °F 86% 29.67 in 10.0 mi SSW 12.7 mph 18.4 mph N/A   Overcast
2:54 AM 42.1 °F 37.1 °F 37.0 °F 82% 29.66 in 10.0 mi WSW 8.1 mph - N/A   Overcast
3:54 AM 42.1 °F 37.1 °F 37.9 °F 85% 29.66 in 10.0 mi SW 8.1 mph - N/A   Overcast
4:54 AM 44.1 °F 39.0 °F 39.0 °F 82% 29.67 in 10.0 mi WSW 9.2 mph - N/A   Overcast
5:34 AM 44.6 °F 40.2 °F 39.2 °F 81% 29.65 in 10.0 mi WSW 8.1 mph - N/A   Overcast
5:54 AM 44.1 °F 39.0 °F 39.9 °F 85% 29.68 in 10.0 mi WSW 9.2 mph - N/A   Overcast
6:54 AM 43.0 °F 36.0 °F 37.0 °F 80% 29.71 in 10.0 mi West 13.8 mph 24.2 mph N/A   Overcast
7:36 AM 42.8 °F 35.8 °F 37.4 °F 81% 29.70 in 10.0 mi West 13.8 mph 21.9 mph N/A   Overcast
7:54 AM 42.1 °F 34.9 °F 37.0 °F 82% 29.74 in 10.0 mi WSW 13.8 mph 21.9 mph N/A   Overcast
8:54 AM 42.1 °F 33.9 °F 36.0 °F 79% 29.75 in 10.0 mi West 17.3 mph 25.3 mph N/A   Overcast
9:54 AM 42.1 °F 34.5 °F 36.0 °F 79% 29.77 in 10.0 mi West 15.0 mph 23.0 mph 0.00 in   Overcast
10:54 AM 43.0 °F 34.5 °F 36.0 °F 76% 29.79 in 10.0 mi WNW 19.6 mph 29.9 mph N/A   Overcast
11:54 AM 42.1 °F 33.1 °F 35.1 °F 76% 29.81 in 10.0 mi WNW 20.7 mph 31.1 mph N/A   Overcast
12:54 PM 43.0 °F 34.0 °F 34.0 °F 71% 29.83 in 10.0 mi WNW 21.9 mph 33.4 mph N/A   Overcast
1:54 PM 42.1 °F 33.3 °F 33.1 °F 70% 29.85 in 10.0 mi WNW 19.6 mph 32.2 mph N/A   Overcast
2:27 PM 42.8 °F 33.8 °F 32.0 °F 66% 29.83 in 10.0 mi WNW 21.9 mph 32.2 mph N/A   Overcast
2:54 PM 42.1 °F 32.8 °F 32.0 °F 67% 29.88 in 10.0 mi WNW 21.9 mph 31.1 mph N/A   Overcast
3:54 PM 41.0 °F 32.8 °F 30.9 °F 67% 29.90 in 10.0 mi WNW 16.1 mph 23.0 mph N/A   Overcast
4:34 PM 41.0 °F 33.5 °F 32.0 °F 70% 29.88 in 10.0 mi West 13.8 mph 20.7 mph N/A   Overcast
4:52 PM 41.0 °F 31.4 °F 30.2 °F 65% 29.89 in 10.0 mi WNW 21.9 mph 28.8 mph N/A   Overcast
4:54 PM 41.0 °F 32.2 °F 30.9 °F 67% 29.92 in 10.0 mi WNW 18.4 mph 27.6 mph N/A   Overcast
5:54 PM 39.0 °F 29.6 °F 26.1 °F 60% 29.95 in 10.0 mi West 18.4 mph 29.9 mph N/A   Overcast
6:54 PM 37.9 °F 28.5 °F 24.1 °F 57% 29.98 in 10.0 mi WNW 17.3 mph 32.2 mph N/A   Overcast
7:54 PM 37.0 °F 27.4 °F 25.0 °F 62% 29.99 in 10.0 mi WNW 17.3 mph 26.5 mph N/A   Overcast
8:54 PM 37.0 °F 27.0 °F 26.1 °F 65% 30.01 in 10.0 mi WNW 18.4 mph 24.2 mph N/A   Overcast
9:54 PM 37.0 °F 27.0 °F 27.0 °F 67% 30.04 in 10.0 mi WNW 18.4 mph 28.8 mph N/A   Overcast
10:54 PM 37.0 °F 27.4 °F 27.0 °F 67% 30.05 in 10.0 mi WNW 17.3 mph 28.8 mph N/A   Overcast
11:54 PM 37.0 °F 26.7 °F 28.0 °F 70% 30.07 in 10.0 mi WNW 19.6 mph 29.9 mph N/A   Overcast